{"data":{"norad_id":43648,"epoch":"2026-05-24T12:33:28.778400Z","epoch_age_seconds":116160,"freshness":"FRESH","line1":"1 43648U 18078B   26144.52324975 -.00000084  00000+0  00000+0 0  9994","line2":"2 43648  54.1090 300.8151 0004901  55.3624 304.6614  1.86232087 51730","mean_motion":1.86232087,"eccentricity":0.0004901,"inclination_deg":54.109,"raan_deg":300.8151,"arg_perigee_deg":55.3624,"mean_anomaly_deg":304.6614,"bstar":0,"rev_number":5173,"period_min":773.22872937573,"perigee_km":21514.266205367,"apogee_km":21541.619744959,"semimajor_km":27906.079975163,"source":"CELESTRAK","updated_at":"2026-05-25T13:38:24.220456Z"}}